Main page
METAR-TAF:

METAR-TAF

Airports :

Teruel Airport

Teruel, Spain

latitude: 40-24-43N, longitude: 01-13-03W, elevation: 1030 m

Current weather observation

The report was made 36 minutes ago, at 12:30 UTC
Wind 9 kt from the South/Southwest, varying between South/Southeast and Southwest
Temperature 9°C
Humidity 66%
Pressure 1012 hPa
Visibility 10 km or more

METAR: LETL 211230Z AUTO 20009KT 150V230 9999 BKN037/// OVC044/// 09/03 Q1012

Time: 14:06 (13:06 UTC)


TAF: missing

Weather observations and forecasts of more than 4000 airports (METAR and TAF reports).

The available stations are represented by yellow and red dots on the map.

Hover mouse over dot to see the name of the station.

Then click to see weather observations and forecasts.

To change the map : click on the green buttons with a black cross to zoom in, on the green button with a dash to zoom out, or on the green arrows for adjacent maps.


METAR-TAF: